Regional Weather Roundup
Issued by NWS Grand Forks, ND

Home | Current Version | Previous Version | Text Only | Print | Product List | Glossary Off
Versions: 1 2 3 4 5 6 7 8 9 10 11 12 13 14 15 16 17 18 19 20 21 22 23 24 25 26 27 28 29 30 31 32 33 34 35 36 37 38 39 40 41 42 43 44 45 46 47 48 49 50

000
ASUS43 KFGF 250410
RWRFGF
PRAIRIE TO PINES  WEATHER ROUNDUP
NATIONAL WEATHER SERVICE EASTERN NORTH DAKOTA/GRAND FORKS ND
1100 PM CDT SUN SEP 24 2017

 **SATELLITE DATA USED TO AUGMENT SKY COVER AT AUTOMATED STATIONS**
 *****  WEATHER ACROSS EASTERN NORTH DAKOTA  *****

CITY           SKY/WX    TMP DP  RH WIND       PRES   REMARKS
GRAND FORKS    LGT RAIN  51  51 100 NW13      30.01R FOG
GRAND FRKS AFB CLOUDY    50  50 100 NW8       30.03R
DEVILS LAKE    CLOUDY    48  46  93 NW9       30.07R
FARGO          CLOUDY    52  50  93 NW12      30.01S
WAHPETON ARPT  CLOUDY    52  46  82 NW10      30.01S
$$

 ***** WEATHER ACROSS CENTRAL AND WESTERN NORTH DAKOTA  *****

CITY           SKY/WX    TMP DP  RH WIND       PRES   REMARKS
BISMARCK       FAIR      46  45  96 NW3       30.11R
MINOT          CLOUDY    49  45  86 W7        30.10R
JAMESTOWN      CLOUDY    49  46  90 NW8       30.06R
MINOT AFB      CLOUDY    47  45  92 NW6       30.09R
GARRISON         N/A     45  44  97 NW7       30.10S
WILLISTON      CLOUDY    47  42  83 CALM      30.14R
DICKINSON      CLOUDY    44  42  93 CALM      30.11S
HETTINGER      CLOUDY    44  41  89 NW6       30.14S
$$

 *****  OTHER AIRPORT OBSERVATIONS IN OUR AREA  *****

CITY           SKY/WX    TMP DP  RH WIND       PRES   REMARKS
WALHALLA       FAIR     N/A N/A N/A NW10G18   30.02R
GRAFTON AIRPOR NOT AVBL
VALLEY CITY AR NOT AVBL
CANDO          CLOUDY    46  46 100 NW6       30.09R
CAVALIER APRT  CLOUDY    50  48  93 N9G16     30.01R
GWINNER        CLOUDY    52  46  82 N13G18    30.03S
SHEYENNE NWR     N/A     52  50  93 N6        29.95S
ROLLA          CLOUDY    46  46 100 N8        30.07R
 ***** THE ABOVE OBSERVATIONS ARE NON NWS ARE NOT QUALITY
       CONTROLLED AND MAY MIS-REPORT RAIN FOR SNOW...
$$

  *****  WEATHER ACROSS NORTHERN MINNESOTA  *****

CITY           SKY/WX    TMP DP  RH WIND       PRES   REMARKS
FLAG ISLAND    MOCLDY    52  48  87 NW13      29.89R
WARROAD        CLOUDY    48  45  87 W8        29.94R FOG
ROSEAU         CLOUDY    50  45  81 W9        29.95R HAZE
HALLOCK        CLOUDY    50  48  93 NW13      29.99R
THF RVR FALLS  CLOUDY    49  48  97 NW14      29.99R
BAUDETTE       CLOUDY    52  52 100 W8        29.91R
WASKISH        CLOUDY    54  52  94 W13       29.92R FOG
CROOKSTON      CLOUDY    50  48  93 NW10      30.01R
STEPHEN NDAWN    N/A     50  48  93 NW9         N/A
GREENBUSH NDAW   N/A     48  48 100 NW8         N/A
$$
  *****  WEATHER ACROSS CENTRAL AND WEST MINNESOTA  *****

CITY           SKY/WX    TMP DP  RH WIND       PRES   REMARKS
FOSSTON        CLOUDY    46  46 100 W12G18    29.98S
BEMIDJI        CLOUDY    51  50  97 W12       29.95R
PARK RAPIDS    CLOUDY    54  51  90 NW13      29.95S
ELBOW LAKE     CLOUDY    52  51  97 NW14      30.00S
WADENA         CLOUDY    52  52 100 NW7       29.97R FOG
DETROIT LAKES  CLOUDY    50  50 100 NW14      30.00R
MOORHEAD       CLOUDY    50  48  93 NW7       30.02R
FERGUS FALLS   CLOUDY    52  52 100 N13       30.00S
MORRIS MN      MOCLDY    54  52  94 N12G18    29.99R
STAPLES        MOCLDY    54  52  94 W10       29.96S
$$
  *****  WEATHER ELSEWHERE ACROSS MINNESOTA  *****

CITY           SKY/WX    TMP DP  RH WIND       PRES   REMARKS
DULUTH         FAIR      66  65  96 W8        29.88S
INTRNTL FALLS  MOCLDY    57  55  93 W8        29.87R
ELY            MOCLDY    66  64  94 S5        29.87R
CLOQUET        MOCLDY    66  63  88 SW7       29.89R
WHEATON        CLOUDY    52  50  93 NW6       30.02S FOG
BRAINERD       CLOUDY    61  58  90 W9        29.94R
HIBBING        CLOUDY    64  64 100 VRB3      29.88R FOG
ALEXANDRIA     CLOUDY    54  52  93 NW10      29.99R
SAINT CLOUD    LGT RAIN  64  64 100 W12       29.92F
MINNEAPOLIS    MOCLDY    73  66  78 W7        29.92R
$$

  *****  WEATHER ACROSS SOUTH DAKOTA  *****

CITY           SKY/WX    TMP DP  RH WIND       PRES   REMARKS
SIOUX FALLS    CLOUDY    57  54  89 N9        29.99S
BROOKINGS      CLOUDY    54  50  86 N13       30.01S
WATERTOWN      CLOUDY    51  50  96 N10       30.01R
HURON          CLOUDY    53  49  86 N13       30.02F
SISSETON         N/A     53  50  89 NW10      30.01R
ABERDEEN       CLOUDY    52  47  83 N10       30.06R
MITCHELL       CLOUDY    55  51  86 N10       30.03R
PIERRE         CLOUDY    50  46  86 N8        30.06S
MOBRIDGE       CLOUDY    51  46  83 VRB7      30.07R
RAPID CITY     CLOUDY    46  43  87 N8        30.12R
$$

  *****  SOME WEATHER IN NEARBY STATES *****

CITY           SKY/WX    TMP DP  RH WIND       PRES   REMARKS
GLASGOW MT     FAIR      46  37  71 S5        30.11R
GREAT FALLS MT FAIR      42  29  59 SE7       30.05R
CHEYENNE WY    RAIN      41  38  89 W21G29    30.10R FOG
SCOTTSBLUFF NE CLOUDY    47  44  90 NE14      30.07R FOG
OMAHA NE       CLOUDY    66  60  81 N12       29.94R
DES MOINES IA  FAIR      75  63  66 SE8       29.92S
DAVENPORT IA   FAIR      71  63  75 SE6       29.99S
CHICAGO IL     FAIR      76  61  59 SE5       30.01S
EAU CLAIRE WI  FAIR      77  62  59 S12       29.90S
LA CROSSE WI   FAIR      76  64  66 S3        29.93S
$$

  *****  SOME NATIONAL WEATHER *****

CITY           SKY/WX    TMP DP  RH WIND       PRES   REMARKS
LA GUARDIA NY  FAIR      76  64  66 CALM      30.03F
RALEIGH NC     MOCLDY    69  60  73 CALM      30.03R
ATLANTA GA     FAIR      74  64  71 E7        30.03S
NEW ORLEANS LA FAIR      77  69  76 E7        29.91S
OKLAHOMA CITY  MOCLDY    74  62  66 SE8       29.91R
ALBUQUERQUE NM MOCLDY    66  16  14 NW13G29   29.93R
SALT LAKE CITY CLOUDY    45  43  93 SE8       30.11R
LOS ANGELES CA FAIR      70  54  56 W7        29.86R
BOISE ID       FAIR      54  35  48 NW9       30.03R
SEATTLE WA     FAIR      65  47  52 CALM      30.10S
$$

*** WEATHER ACROSS MANITOBA...SASKATCHEWAN AND ONTARIO ***
                ***ONTARIO***

CITY           SKY/WX    TMP DP  RH WIND       PRES   REMARKS
GERALDTON      PTCLDY    66  63  88 S7        29.82F
THUNDER BAY    PTCLDY    63  63 100 NE3       29.82F
SIOUX LOOKOUT  LGT RAIN  61  61 100 W7        29.77R FOG
TORONTO        CLEAR     77  64  65 W2        30.09F
BIG TROUT LK   LGT RAIN  45  45 100 NE8       29.92F
PICKLE LAKE    NOT AVBL
DRYDEN         CLOUDY    55  55 100 W9        29.81R FOG
KENORA         LGT RAIN  50  50 100 NW8       29.88R VSB 3/4
$$
                *** MANITOBA***

CITY           SKY/WX    TMP DP  RH WIND       PRES   REMARKS
BRANDON        PTCLDY    41  39  93 NW6       30.08R
DAUPHIN        CLOUDY    48  46  93 N5        30.09S
ISLAND LAKE    NOT AVBL
PILOT MOUND      N/A     46  45  93 NW8         N/A
THE PAS        MOCLDY    43  39  87 E3        30.12S
THOMPSON       CLOUDY    37  34  87 N5        30.14F
WINNIPEG       CLOUDY    48  46  93 N15       30.00R
LYNN LAKE      MOCLDY    36  36 100 SE5       30.12S
CHURCHILL      CLOUDY    39  34  81 S3        30.18S
GILLAM         CLOUDY    39  34  81 NE12      30.14F
$$
                ***SASKATCHEWAN***

CITY           SKY/WX    TMP DP  RH WIND       PRES   REMARKS
ESTEVAN        CLOUDY    46  45  93 SW3       30.12R
KINDERSLEY     PTCLDY    43  32  65 SE10      30.02F
LLOYDMINSTER   PTCLDY    45  36  70 S9        29.97F
PRINCE ALBERT  MOCLDY    46  41  81 E3        30.08S
REGINA         NOT AVBL
YORKTON        CLOUDY    48  39  71 VRB2      30.10S
N. BATTLEFORD  CLOUDY    46  36  66 E7        30.05S
LA RONGE       MOCLDY    48  43  81 S5        30.05S
SASKATOON      CLEAR     43  36  75 SE6       30.07S
SWIFT CURRENT    N/A     45  32  61 S7        30.06R
$$
NOTE: THESE ARE AUTOMATED STATIONS WITH LIMITED QUALITY CONTROL
      "FAIR" INDICATES FEW OR NO CLOUDS BELOW 12,000 FEET WITH NO
      SIGNIFICANT WEATHER AND/OR OBSTRUCTIONS TO VISIBILITY.
      SKY/WX - SKY CONDITION AND SIGNIFICANT WEATHER.
      TMP - AIR TEMPERATURE.    DP   - DEWPOINT TEMPERATURE.
      RH  - RELATIVE HUMIDITY.  PRES - PRESSURE.
      HX  - HEAT INDEX.         WCI  - WIND CHILL INDEX.
$




USA.gov is the U.S. government's official web portal to all federal, state and local government web resources and services.